Location: Artiguedieu
(43.5000°N, 0.5454°E)
Time: 19:58:47
(UTC+00:00)

Vanguard 1 - Pass Details

Date: 02 August 2021
Orbit: 652 x 3831 km, 34.3° (Epoch: 19 September)

Event Time Altitude Azimuth Distance (km) Brightness Sun altitude
Rises 13:29:09 0° 262° (W) 3,476 13.2 58.5°
Reaches altitude 10° 13:31:24 10° 254° (WSW) 2,758 13.0 58.2°
Maximum altitude 13:37:31 39° 187° (S) 1,965 12.8 57.5°
Drops below altitude 10° 13:47:56 10° 124° (SE) 4,681 13.6 56.1°
Sets 13:53:03 0° 118° (ESE) 6,238 14.0 55.4°
